GFSNIL_850_spd_000.txt.gz
Wind_Speed
11 6 7 8 8 6 7 8 10 9 10 11 13 13 15 15 16 19 23 26 28 30
8 6 7 8 9 7 9 7 9 11 11 10 11 11 13 14 17 19 21 24 26 29
7 6 7 7 8 8 8 9 12 12 11 10 10 10 12 14 16 17 18 21 25 30
6 6 7 7 8 9 10 10 12 14 14 13 13 12 13 13 15 18 21 24 28 30
7 7 8 9 9 11 12 13 16 17 16 15 15 15 14 16 18 22 27 27 29 34
8 8 8 9 10 11 13 15 16 16 15 15 14 14 15 16 18 21 23 31 33 39
9 9 9 10 12 13 14 16 15 16 15 14 14 14 14 13 16 24 20 32 38 41
11 11 12 13 14 14 15 15 14 14 14 14 15 15 14 15 15 23 23 27 37 36
12 12 13 13 14 15 14 14 13 14 14 14 14 16 17 17 13 19 23 25 27 35
11 11 12 12 13 13 14 15 14 13 13 13 13 17 19 18 13 16 21 23 25 30
12 13 12 12 12 12 14 14 13 13 12 11 14 18 18 20 20 17 18 22 26 31
13 13 13 13 13 13 13 13 13 13 11 13 15 19 20 20 17 19 22 22 24 27
12 13 14 15 14 13 12 11 11 12 13 15 16 16 17 17 16 19 20 23 25 26
14 15 16 15 15 13 13 13 13 14 13 13 13 15 14 14 15 17 20 21 23 26

GFSNIL_850_spd_003.txt.gz
Wind_Speed
6 4 8 7 8 7 8 8 11 8 10 11 12 12 13 13 14 16 17 19 21 24
6 7 7 11 9 7 11 8 9 10 11 12 12 13 13 13 16 16 17 18 19 22
7 7 7 8 8 9 10 10 11 10 12 13 13 14 14 13 12 13 15 18 23 26
6 6 8 8 8 9 11 12 12 13 14 14 13 15 17 16 14 17 20 22 21 24
7 7 7 9 10 10 11 12 14 15 16 16 16 15 17 17 17 19 20 19 20 22
8 8 9 9 9 10 11 13 15 16 17 17 16 17 15 17 18 17 17 17 18 20
10 9 9 10 10 10 12 15 17 17 17 17 17 17 18 19 15 16 16 15 19 19
10 10 10 11 11 12 14 15 16 16 17 17 17 18 16 14 18 18 17 16 15 19
10 11 11 11 11 13 14 14 15 16 17 17 17 19 20 21 23 18 18 17 17 24
11 11 10 10 12 13 13 14 16 16 15 16 16 19 20 24 24 21 21 19 21 22
12 12 11 12 13 14 13 14 16 15 16 15 16 19 22 26 25 23 22 22 24 28
13 13 13 14 14 14 14 15 14 15 17 17 17 20 23 22 21 20 22 22 21 24
15 14 14 15 14 13 15 15 14 15 16 18 22 21 18 16 15 19 20 20 21 22
15 15 15 16 18 16 16 15 16 15 19 21 23 28 18 15 15 15 18 21 22 22

GFSNIL_850_spd_006.txt.gz
Wind_Speed
3 2 2 6 11 12 7 6 12 15 10 13 12 14 15 14 13 13 14 13 13 14
3 4 6 12 14 5 6 8 9 11 15 12 13 16 16 16 14 13 12 14 16 18
4 7 7 6 7 8 9 11 13 14 12 12 14 16 16 18 16 17 18 17 19 17
10 7 8 8 7 8 10 12 14 15 15 17 16 18 18 20 19 16 17 20 17 18
8 6 10 10 8 10 12 12 14 15 16 18 18 20 20 19 19 19 22 19 16 18
9 8 9 9 9 10 12 12 13 16 19 20 19 20 20 21 20 19 19 20 18 19
13 12 9 9 10 13 11 14 17 19 20 19 18 20 21 22 21 20 19 23 24 21
16 14 10 11 11 11 12 15 17 18 18 18 19 21 18 16 20 21 25 27 25 21
16 13 12 11 13 13 14 17 16 17 18 22 21 21 23 23 21 24 27 27 27 24
17 15 15 14 13 14 16 15 15 19 20 23 21 19 20 21 25 29 28 26 27 26
18 17 17 17 15 15 16 16 19 19 23 20 21 20 21 22 26 27 27 25 25 22
20 19 20 19 17 16 17 17 19 22 21 21 19 20 21 24 19 25 26 26 24 23
20 20 20 19 18 16 19 20 24 19 21 19 20 27 29 27 26 23 23 24 24 23
20 20 21 21 19 20 22 27 19 21 25 24 24 26 26 22 20 19 20 25 23 19

GFSNIL_850_spd_009.txt.gz
Wind_Speed
4 7 6 5 8 7 8 9 10 11 12 10 9 8 11 14 11 11 11 10 12 13
5 6 10 9 10 12 11 8 9 10 13 15 10 9 11 14 13 14 14 16 15 17
4 2 4 7 6 6 6 9 9 10 11 11 12 11 12 16 15 15 16 18 16 19
8 8 8 6 5 5 6 8 10 12 12 13 14 14 14 18 19 16 16 17 18 19
15 13 12 9 9 7 8 9 10 10 11 15 17 16 15 17 16 17 17 16 17 20
18 12 12 12 10 8 7 8 7 10 13 16 15 14 13 15 18 18 19 19 19 22
18 14 11 9 8 8 7 8 9 11 14 14 14 16 17 18 18 18 18 19 22 25
20 15 13 11 9 7 7 8 10 13 15 15 14 16 17 18 21 21 18 22 24 26
23 19 18 14 11 10 10 11 12 16 17 17 16 17 18 18 19 20 21 24 24 25
26 22 19 16 15 15 15 15 14 14 16 17 18 17 16 18 19 22 24 22 20 21
26 24 20 21 20 19 16 17 16 14 17 17 17 18 19 19 22 26 28 25 22 21
27 25 23 23 20 19 19 20 19 18 20 17 20 20 16 19 23 29 22 19 20 19
26 25 25 24 21 21 24 23 21 20 22 18 18 20 21 21 23 21 25 24 17 20
24 23 23 23 22 25 25 24 19 21 22 20 16 18 19 21 24 22 21 20 21 19

GFSNIL_850_spd_015.txt.gz
Wind_Speed
18 16 15 16 16 16 13 12 10 10 12 10 9 10 9 8 8 9 10 11 11 11
20 19 17 14 13 13 14 12 10 11 11 10 12 10 10 11 10 12 12 13 14 15
24 20 19 18 17 15 13 13 13 12 11 10 10 9 11 12 13 13 12 14 14 14
28 24 18 17 16 14 11 12 13 11 11 10 9 8 10 12 12 12 11 12 14 14
30 29 23 19 17 14 13 13 12 11 9 8 7 8 9 9 10 13 14 15 14 14
35 33 29 22 18 15 13 13 12 11 9 7 7 8 9 10 12 14 15 16 15 17
45 36 32 24 19 17 15 14 14 13 10 9 9 10 11 12 14 14 15 19 20 19
50 35 32 26 20 18 17 16 17 16 13 10 11 11 11 13 16 16 17 17 19 21
34 25 26 25 24 22 20 17 18 22 17 13 12 12 12 15 17 17 18 19 20 22
36 26 41 38 35 25 21 20 25 22 20 14 11 10 13 16 17 19 19 20 23 24
41 45 34 40 40 28 23 24 24 24 20 17 17 15 17 17 19 21 20 22 24 26
34 43 32 34 39 31 23 26 23 23 20 21 19 18 21 17 19 21 22 23 24 24
32 39 37 30 27 29 25 27 26 24 24 26 22 23 23 21 20 21 21 21 25 25
29 25 29 27 23 23 26 31 30 28 28 27 27 22 19 19 18 19 19 22 20 19

GFSNIL_850_spd_021.txt.gz
Wind_Speed
33 30 27 22 19 16 15 14 14 15 13 13 11 9 8 8 8 8 9 8 9 10
36 33 29 24 19 16 16 16 16 16 13 12 12 11 10 10 10 10 10 10 10 11
39 34 28 23 19 15 18 17 17 15 13 13 14 13 13 11 11 11 12 12 12 12
42 37 30 27 18 16 15 14 15 14 14 16 15 15 14 12 13 13 12 10 10 11
44 40 31 24 21 17 12 13 15 17 18 18 17 16 15 13 14 13 12 10 13 14
48 42 38 38 34 18 6 10 18 20 21 21 19 17 15 14 14 15 14 12 14 15
48 46 41 41 38 32 22 33 31 25 26 25 20 20 19 17 15 16 16 14 17 17
46 45 45 47 50 48 28 23 37 32 28 26 24 23 22 18 17 16 16 16 17 19
41 41 46 52 56 50 43 32 30 40 31 29 28 27 23 21 21 19 19 18 18 19
30 34 40 49 55 52 44 37 31 38 37 33 33 27 24 23 24 24 23 22 22 22
24 26 32 41 47 50 45 36 36 37 38 33 30 28 25 24 25 27 28 25 25 26
20 22 28 35 41 44 44 35 33 38 40 32 27 29 27 23 27 29 33 28 28 24
14 20 25 30 36 40 44 36 30 33 40 31 26 28 28 35 36 34 33 27 27 22
12 17 19 25 29 32 33 32 31 27 27 25 27 29 32 31 26 27 33 26 24 20

GFSNIL_850_spd_024.txt.gz
Wind_Speed
32 25 21 18 14 12 11 10 14 12 14 13 12 12 10 7 6 8 7 8 8 7
35 30 21 20 19 17 16 12 16 13 13 13 13 13 11 7 9 10 8 8 10 10
35 33 29 28 25 21 19 17 16 14 12 14 14 13 13 10 11 11 9 8 11 11
38 35 34 32 29 26 21 18 17 13 7 14 16 14 15 14 13 13 11 10 11 12
41 40 39 36 32 30 25 20 19 11 16 16 21 18 16 16 13 13 12 11 12 12
40 42 44 37 39 34 29 25 23 14 23 23 21 21 22 18 17 15 15 13 13 13
36 44 43 43 44 42 41 34 28 23 20 31 26 22 23 22 20 18 16 16 14 15
32 37 38 43 45 44 46 44 35 32 28 25 27 25 25 22 21 20 16 16 16 15
29 30 35 40 45 49 50 49 48 45 33 27 30 26 26 24 22 21 18 16 17 16
25 24 24 31 39 50 50 50 50 43 34 28 32 31 28 23 23 22 19 18 19 24
22 19 20 26 30 38 48 53 50 46 39 30 28 31 31 24 25 26 28 25 26 28
16 17 18 21 24 27 32 39 41 35 34 31 24 28 27 27 29 31 29 31 31 36
13 15 16 18 21 22 25 28 23 26 26 23 21 26 23 26 28 29 30 32 30 33
12 14 17 16 20 19 19 20 21 21 25 28 24 25 27 24 27 28 28 25 29 25

GFSNIL_850_spd_027.txt.gz
Wind_Speed
28 27 25 23 19 15 14 13 18 13 12 10 10 7 8 5 3 6 4 5 5 4
33 31 28 25 23 18 17 15 20 15 14 10 9 8 9 6 8 7 7 6 7 5
36 36 34 29 27 23 21 21 21 17 16 14 2 13 13 7 9 10 10 7 8 9
37 35 35 33 33 31 27 27 27 22 20 16 11 12 16 9 14 12 11 10 12 11
39 38 38 38 36 34 33 31 29 25 23 21 15 15 14 13 11 14 14 15 10 11
41 42 43 42 40 38 38 35 32 29 28 24 14 17 17 15 16 17 16 12 13 13
42 44 43 42 43 43 43 40 38 34 29 27 13 20 19 18 18 17 15 15 13 14
39 40 38 38 40 42 42 41 39 35 32 30 21 21 21 21 20 19 17 17 15 15
37 38 39 37 35 37 35 36 40 37 35 33 24 20 19 21 20 19 20 18 16 19
36 37 35 29 30 36 35 40 45 44 40 31 24 21 21 20 22 20 20 21 24 22
34 32 29 26 30 33 32 35 39 35 35 29 24 24 21 20 26 25 25 25 26 26
29 28 26 27 28 27 26 29 30 30 26 27 30 25 26 23 24 24 27 26 30 28
26 26 23 21 21 22 22 24 27 26 28 29 33 31 29 25 25 23 22 26 27 29
24 21 18 20 19 21 22 21 23 22 17 19 19 19 22 20 22 20 21 21 25 25

GFSNIL_850_spd_030.txt.gz
Wind_Speed
33 34 30 30 20 24 18 18 18 17 20 18 15 16 11 6 7 5 4 8 8 11
35 36 38 31 28 20 19 19 24 22 21 17 16 11 12 11 7 9 10 8 4 0
39 36 36 36 32 30 24 24 24 26 25 21 16 15 15 11 13 9 7 8 7 9
40 40 36 35 35 35 33 29 31 28 23 20 19 19 15 14 12 11 9 12 15 16
41 40 40 39 39 40 37 35 36 34 29 23 24 23 16 17 19 16 13 12 11 11
44 42 42 41 39 41 41 40 40 39 35 31 28 27 18 19 18 18 18 15 14 12
46 45 44 41 40 39 42 42 43 41 37 35 32 30 21 21 21 20 20 18 17 14
47 45 43 42 41 39 40 42 42 40 37 38 35 33 25 22 22 21 20 20 19 18
43 43 44 42 40 39 39 42 41 42 38 39 37 35 26 22 24 22 21 22 23 20
43 43 43 41 39 40 39 38 38 36 36 36 37 34 26 24 23 24 23 22 22 21
45 45 42 40 39 37 35 37 36 33 33 34 34 31 26 25 22 23 22 25 24 24
44 43 42 39 35 33 31 32 32 29 30 30 29 26 27 25 27 24 25 30 28 27
39 40 39 34 32 26 27 29 26 26 25 26 25 26 25 24 25 26 26 27 27 27
34 33 31 27 20 20 21 20 23 22 24 25 25 25 25 26 27 26 25 24 20 21

GFSNIL_850_spd_033.txt.gz
Wind_Speed
37 32 31 28 21 22 21 16 15 16 20 17 16 15 12 10 9 8 9 12 16 15
38 40 35 35 33 24 22 19 16 18 16 15 17 17 14 12 11 11 9 9 11 16
37 40 40 36 36 34 28 27 20 25 24 20 19 19 19 16 14 13 10 11 11 11
36 39 40 40 40 35 31 29 30 28 27 26 24 23 22 18 15 16 15 15 14 13
39 38 41 41 41 40 40 38 34 32 32 30 28 25 26 23 19 19 18 17 19 19
41 41 43 42 41 41 39 43 41 40 39 38 35 30 28 27 21 21 19 19 20 19
45 44 44 44 41 41 41 42 44 43 43 41 39 35 31 29 25 25 23 23 21 21
45 45 45 45 44 40 42 43 43 44 44 43 40 38 34 30 29 27 25 25 27 24
44 46 46 46 45 43 41 42 44 45 43 42 39 38 33 31 33 29 26 26 27 26
45 45 46 46 45 44 42 39 41 41 39 37 36 36 32 32 34 30 27 26 27 28
46 45 42 43 44 43 39 38 37 37 34 32 32 30 28 29 30 29 27 28 26 27
48 46 43 43 43 40 37 36 35 32 29 28 27 23 22 27 30 28 28 29 28 27
51 49 46 44 43 38 36 32 28 24 24 21 23 19 20 21 26 29 31 29 29 30
46 47 46 45 41 35 31 26 28 27 24 11 22 18 20 24 26 26 25 26 27 27

GFSNIL_850_spd_036.txt.gz
Wind_Speed
33 33 31 29 31 28 25 21 17 19 21 19 16 15 15 13 12 12 14 16 16 14
34 37 34 30 31 30 24 21 20 18 18 19 18 17 16 16 13 13 12 12 15 18
36 38 36 35 36 33 26 25 25 22 20 18 18 17 17 17 16 13 13 12 12 14
41 37 39 39 38 39 36 32 30 28 25 24 23 21 20 19 19 16 16 15 14 15
44 41 39 42 42 41 42 40 36 33 33 30 27 27 24 23 24 21 18 17 16 16
49 45 42 41 43 43 44 42 42 40 37 34 31 30 28 25 25 26 21 21 20 19
50 47 43 42 43 45 44 45 45 45 43 39 35 34 32 30 27 28 27 24 25 23
51 47 44 44 44 45 45 45 45 44 45 44 41 38 36 35 31 29 31 28 28 26
52 51 49 47 46 45 44 44 44 44 43 43 42 40 39 36 34 32 33 33 30 27
54 52 52 50 47 47 45 43 43 41 41 40 39 37 37 35 35 34 32 34 30 27
57 53 51 51 50 48 46 43 42 40 37 36 35 32 31 31 31 30 30 30 28 27
59 54 51 49 49 48 46 42 41 36 34 32 29 28 30 29 26 24 23 23 24 25
60 56 52 47 45 46 43 40 36 33 29 24 27 27 25 20 19 17 16 20 24 26
57 57 52 49 45 45 41 36 30 28 24 18 29 26 20 15 15 16 17 19 23 27

GFSNIL_850_spd_042.txt.gz
Wind_Speed
41 37 33 32 28 29 31 29 24 24 24 22 19 17 17 17 15 13 11 9 10 11
45 42 36 33 31 30 32 31 27 26 23 20 20 19 19 18 17 15 13 10 11 12
47 44 39 34 33 31 31 34 32 29 25 23 22 21 22 20 18 19 16 13 12 12
51 48 44 40 34 33 33 33 37 35 30 26 25 24 24 22 21 21 19 17 16 15
51 50 47 44 38 35 34 34 36 37 35 31 29 26 24 24 24 24 22 21 21 19
52 52 50 47 42 39 37 37 38 39 40 37 35 33 29 27 26 25 23 22 23 22
52 51 50 47 46 43 40 39 41 42 42 40 38 37 33 30 30 28 26 25 25 25
51 50 49 50 49 46 44 43 42 44 45 45 44 42 38 35 33 31 29 28 28 29
50 50 50 50 51 48 47 46 45 45 48 49 49 47 43 40 37 34 32 31 29 33
48 49 48 49 50 52 51 49 49 48 49 51 51 50 46 42 39 38 36 33 33 38
48 48 46 45 48 49 52 53 51 51 52 51 51 51 50 46 42 43 38 34 33 33
47 48 48 48 46 48 50 53 55 54 54 54 53 50 47 42 44 45 40 34 29 22
48 49 49 47 45 46 47 50 52 55 56 55 52 50 44 40 43 43 38 31 30 25
45 46 46 46 44 43 44 46 49 52 54 56 52 49 43 41 41 39 32 33 27 24

GFSNIL_850_spd_045.txt.gz
Wind_Speed
43 41 37 33 33 31 28 25 25 24 23 22 20 20 18 17 16 14 13 11 11 12
46 44 41 35 31 33 29 27 27 26 24 24 23 22 20 19 19 18 15 14 12 13
45 46 43 39 35 32 32 29 30 30 27 26 25 24 23 22 21 21 19 18 15 12
45 46 46 44 39 35 31 32 33 34 34 31 29 27 27 26 25 25 23 21 19 16
44 43 45 46 43 39 36 34 34 35 37 36 34 30 30 29 29 29 27 24 23 20
49 48 47 47 45 44 41 38 37 37 38 40 40 37 33 32 32 31 29 27 24 23
51 50 47 46 46 46 44 42 41 40 39 39 41 41 38 36 34 33 32 30 27 26
44 46 47 48 46 45 48 46 43 42 41 40 42 45 44 42 40 38 35 34 31 31
43 43 44 46 46 45 47 49 48 47 45 44 45 47 47 44 43 42 38 38 34 34
45 45 45 44 45 46 48 49 52 51 50 49 47 46 47 46 46 46 44 41 38 38
45 45 46 44 44 44 47 49 52 54 53 52 49 47 47 47 47 49 48 44 42 41
43 44 45 45 44 45 47 47 51 54 55 55 52 49 48 48 48 51 52 48 45 40
40 43 44 44 45 45 47 46 46 51 54 56 56 54 52 51 51 51 52 52 48 43
36 38 40 41 42 41 40 32 41 44 47 49 51 55 57 55 55 54 51 49 47 43

GFSNIL_850_spd_048.txt.gz
Wind_Speed
38 36 32 30 25 21 21 19 18 19 21 23 20 18 19 15 14 14 13 11 10 10
41 40 33 33 31 28 24 21 20 20 22 24 23 21 20 18 19 19 16 15 13 11
45 42 41 40 37 34 30 28 24 22 23 26 25 25 24 21 22 23 22 19 18 14
47 45 42 44 43 40 37 35 30 30 26 28 28 27 28 26 22 26 26 25 23 20
45 46 44 43 44 42 40 38 35 33 32 32 30 30 32 31 27 30 29 29 28 26
46 46 49 46 43 43 42 41 38 37 37 35 36 37 37 37 34 32 31 30 31 29
49 49 48 49 46 45 43 43 42 42 40 39 38 40 41 37 38 36 34 31 32 32
47 50 51 51 51 48 46 44 43 44 45 43 42 41 44 46 45 44 40 36 35 35
45 46 50 52 53 50 49 47 45 46 48 49 48 48 46 46 49 50 44 42 41 36
46 45 45 45 47 49 50 48 48 48 49 52 52 51 50 48 47 48 52 49 46 42
46 45 42 41 43 44 46 48 48 49 50 52 55 54 52 50 47 49 49 49 49 47
42 41 41 41 42 41 38 38 36 34 38 46 47 52 53 52 52 51 51 45 50 49
37 39 39 38 37 35 34 32 28 29 31 33 32 32 39 44 45 41 35 42 50 54
34 35 34 33 32 30 30 27 30 30 32 31 28 26 23 37 43 45 50 56 49 50